status,avgMeasuredTime,avgSpeed,extID,medianMeasuredTime,TIMESTAMP,vehicleCount,_id,REPORT_ID
OK,45,39,1006,45,2014-08-01T08:00:00,2,20747061,184813
OK,62,28,1006,62,2014-08-01T08:10:00,3,20747883,184813
OK,62,28,1006,62,2014-08-01T08:15:00,0,20748332,184813
OK,52,33,1006,52,2014-08-01T08:20:00,2,20748781,184813
OK,49,36,1006,49,2014-08-01T08:25:00,8,20749230,184813
OK,48,36,1006,48,2014-08-01T08:30:00,8,20749679,184813
OK,60,29,1006,60,2014-08-01T08:35:00,6,20750128,184813
OK,77,22,1006,77,2014-08-01T08:40:00,9,20750577,184813
OK,70,25,1006,70,2014-08-01T08:45:00,5,20751026,184813
OK,36,49,1006,36,2014-08-01T08:50:00,1,20751475,184813
OK,72,24,1006,72,2014-08-01T09:00:00,5,20752373,184813
OK,72,24,1006,72,2014-08-01T09:05:00,8,20752822,184813
OK,72,24,1006,72,2014-08-01T09:10:00,7,20753271,184813
OK,60,29,1006,60,2014-08-01T09:20:00,3,20754169,184813
OK,77,22,1006,77,2014-08-01T09:25:00,3,20754618,184813
OK,62,28,1006,62,2014-08-01T09:30:00,4,20755067,184813
OK,33,53,1006,33,2014-08-01T09:35:00,3,20755516,184813
OK,74,23,1006,74,2014-08-01T09:40:00,1,20755965,184813
OK,74,23,1006,74,2014-08-01T09:45:00,5,20756414,184813
OK,70,25,1006,70,2014-08-01T09:50:00,6,20756863,184813
OK,33,53,1006,33,2014-08-01T09:55:00,2,20757312,184813
OK,65,27,1006,65,2014-08-01T10:00:00,1,20757761,184813
OK,57,31,1006,57,2014-08-01T10:05:00,4,20758210,184813
OK,52,33,1006,52,2014-08-01T10:15:00,8,20759108,184813
OK,53,33,1006,53,2014-08-01T10:20:00,3,20759557,184813
OK,81,21,1006,81,2014-08-01T10:25:00,4,20760006,184813
OK,90,19,1006,90,2014-08-01T10:30:00,9,20760455,184813
OK,86,20,1006,86,2014-08-01T10:35:00,8,20760904,184813
OK,82,21,1006,82,2014-08-01T10:40:00,7,20761353,184813
OK,73,24,1006,73,2014-08-01T10:45:00,8,20761802,184813
OK,58,30,1006,58,2014-08-01T10:50:00,5,20762251,184813
OK,68,25,1006,68,2014-08-01T11:00:00,4,20763149,184813
OK,74,23,1006,74,2014-08-01T11:10:00,2,20764047,184813
OK,45,39,1006,45,2014-08-01T11:20:00,3,20764944,184813
OK,61,28,1006,61,2014-08-01T11:25:00,7,20765393,184813
OK,73,24,1006,73,2014-08-01T11:30:00,7,20765842,184813
OK,73,24,1006,73,2014-08-01T11:35:00,1,20766291,184813
OK,59,29,1006,59,2014-08-01T11:40:00,4,20766740,184813
OK,63,28,1006,63,2014-08-01T11:45:00,7,20767189,184813
OK,63,28,1006,63,2014-08-01T11:50:00,5,20767638,184813
OK,69,25,1006,69,2014-08-01T11:55:00,3,20768087,184813
OK,73,24,1006,73,2014-08-01T12:00:00,2,20768536,184813
OK,58,30,1006,58,2014-08-01T12:10:00,8,20769434,184813
OK,55,32,1006,55,2014-08-01T12:15:00,3,20769883,184813
OK,68,25,1006,68,2014-08-01T12:20:00,5,20770332,184813
OK,85,20,1006,85,2014-08-01T12:25:00,7,20770781,184813
OK,85,20,1006,85,2014-08-01T12:30:00,5,20771230,184813
OK,63,28,1006,63,2014-08-01T12:35:00,5,20771679,184813
OK,82,21,1006,82,2014-08-01T12:40:00,4,20772128,184813
OK,61,28,1006,61,2014-08-01T12:45:00,5,20772577,184813
OK,55,32,1006,55,2014-08-01T12:50:00,5,20773026,184813
OK,55,32,1006,55,2014-08-01T12:55:00,3,20773475,184813
OK,60,29,1006,60,2014-08-01T13:00:00,3,20773924,184813
OK,62,28,1006,62,2014-08-01T13:05:00,6,20774373,184813
OK,65,27,1006,65,2014-08-01T13:10:00,7,20774822,184813
OK,91,19,1006,91,2014-08-01T13:15:00,5,20775271,184813
OK,58,30,1006,58,2014-08-01T13:20:00,8,20775720,184813
OK,60,29,1006,60,2014-08-01T13:25:00,7,20776169,184813
OK,72,24,1006,72,2014-08-01T13:30:00,8,20776618,184813
OK,65,27,1006,65,2014-08-01T13:35:00,10,20777067,184813
OK,67,26,1006,67,2014-08-01T13:40:00,8,20777516,184813
OK,68,25,1006,68,2014-08-01T13:45:00,5,20777965,184813
OK,124,14,1006,124,2014-08-01T13:50:00,2,20778414,184813
OK,49,36,1006,49,2014-08-01T14:00:00,6,20779312,184813
OK,32,55,1006,32,2014-08-01T14:05:00,4,20779761,184813
OK,44,40,1006,44,2014-08-01T14:10:00,4,20780210,184813
OK,79,22,1006,79,2014-08-01T14:15:00,3,20780659,184813
OK,99,17,1006,99,2014-08-01T14:20:00,3,20781108,184813
OK,67,26,1006,67,2014-08-01T14:25:00,2,20781557,184813
OK,35,50,1006,35,2014-08-01T14:30:00,2,20782006,184813
OK,42,42,1006,42,2014-08-01T14:35:00,5,20782455,184813
OK,62,28,1006,62,2014-08-01T14:40:00,5,20782904,184813
OK,76,23,1006,76,2014-08-01T14:45:00,4,20783353,184813
OK,75,23,1006,75,2014-08-01T14:50:00,3,20783802,184813
OK,51,34,1006,51,2014-08-01T15:00:00,8,20784700,184813
OK,43,41,1006,43,2014-08-01T15:05:00,6,20785149,184813
OK,58,30,1006,58,2014-08-01T15:10:00,7,20785598,184813
OK,67,26,1006,67,2014-08-01T15:15:00,8,20786047,184813
OK,78,22,1006,78,2014-08-01T15:20:00,6,20786496,184813
OK,64,27,1006,64,2014-08-01T15:25:00,4,20786945,184813
OK,51,34,1006,51,2014-08-01T15:30:00,5,20787394,184813
OK,48,36,1006,48,2014-08-01T15:35:00,4,20787843,184813
OK,60,29,1006,60,2014-08-01T15:40:00,5,20788292,184813
OK,60,29,1006,60,2014-08-01T15:45:00,4,20788741,184813
OK,60,29,1006,60,2014-08-01T15:50:00,0,20789190,184813
OK,67,26,1006,67,2014-08-01T15:55:00,2,20789639,184813
OK,64,27,1006,64,2014-08-01T16:00:00,3,20790088,184813
OK,41,43,1006,41,2014-08-01T16:05:00,3,20790537,184813
OK,53,33,1006,53,2014-08-01T16:10:00,4,20790986,184813
OK,54,32,1006,54,2014-08-01T16:15:00,5,20791435,184813
OK,95,18,1006,95,2014-08-01T16:20:00,2,20791884,184813
OK,46,38,1006,46,2014-08-01T16:25:00,2,20792333,184813
OK,49,36,1006,49,2014-08-01T16:30:00,4,20792782,184813
OK,55,32,1006,55,2014-08-01T16:35:00,5,20793231,184813
OK,59,29,1006,59,2014-08-01T16:40:00,4,20793680,184813
OK,89,19,1006,89,2014-08-01T16:45:00,1,20794129,184813
OK,89,19,1006,89,2014-08-01T16:50:00,0,20794578,184813
OK,50,35,1006,50,2014-08-01T16:55:00,2,20795027,184813
OK,38,46,1006,38,2014-08-01T17:00:00,2,20795476,184813
OK,37,47,1006,37,2014-08-01T17:05:00,0,20795925,184813
OK,37,47,1006,37,2014-08-01T17:10:00,0,20796374,184813
OK,66,26,1006,66,2014-08-01T17:15:00,1,20796823,184813
OK,68,25,1006,68,2014-08-01T17:20:00,2,20797272,184813
OK,70,25,1006,70,2014-08-01T17:25:00,0,20797721,184813
OK,70,25,1006,70,2014-08-01T17:30:00,0,20798170,184813
OK,70,25,1006,70,2014-08-01T17:35:00,0,20798619,184813
OK,43,41,1006,43,2014-08-01T17:40:00,1,20799068,184813
OK,43,41,1006,43,2014-08-01T17:45:00,3,20799517,184813
OK,64,27,1006,64,2014-08-01T17:50:00,2,20799966,184813
OK,59,29,1006,59,2014-08-01T17:55:00,1,20800415,184813
OK,59,29,1006,59,2014-08-01T18:00:00,0,20800864,184813
OK,41,43,1006,41,2014-08-01T18:05:00,1,20801313,184813
OK,41,43,1006,41,2014-08-01T18:10:00,1,20801762,184813
OK,53,33,1006,53,2014-08-01T18:15:00,1,20802211,184813
OK,53,33,1006,53,2014-08-01T18:20:00,0,20802660,184813
OK,63,28,1006,63,2014-08-01T18:25:00,3,20803109,184813
OK,63,28,1006,63,2014-08-01T18:30:00,5,20803558,184813
OK,56,31,1006,56,2014-08-01T18:35:00,1,20804007,184813
OK,56,31,1006,56,2014-08-01T18:40:00,0,20804456,184813
OK,56,31,1006,56,2014-08-01T18:45:00,0,20804905,184813
OK,56,31,1006,56,2014-08-01T18:50:00,0,20805354,184813
OK,40,44,1006,40,2014-08-01T18:55:00,1,20805803,184813
OK,40,44,1006,40,2014-08-01T19:00:00,1,20806252,184813
OK,40,44,1006,40,2014-08-01T19:05:00,0,20806701,184813
OK,40,44,1006,40,2014-08-01T19:10:00,0,20807150,184813
OK,32,55,1006,32,2014-08-01T19:15:00,1,20807599,184813
OK,31,57,1006,31,2014-08-01T19:20:00,2,20808048,184813
OK,30,58,1006,30,2014-08-01T19:25:00,0,20808497,184813
OK,30,58,1006,30,2014-08-01T19:30:00,0,20808946,184813
OK,30,58,1006,30,2014-08-01T19:35:00,0,20809395,184813
OK,30,58,1006,30,2014-08-01T19:40:00,0,20809844,184813
OK,30,58,1006,30,2014-08-01T19:45:00,0,20810293,184813
OK,30,58,1006,30,2014-08-01T19:50:00,0,20810742,184813
OK,49,36,1006,49,2014-08-01T19:55:00,1,20811191,184813
OK,51,34,1006,51,2014-08-01T22:00:00,0,20816920,184813
OK,51,34,1006,51,2014-08-02T00:00:00,0,20823359,184813
OK,46,38,1006,46,2014-08-02T00:05:00,0,20823808,184813
OK,46,38,1006,46,2014-08-02T00:10:00,0,20824257,184813
OK,46,38,1006,46,2014-08-02T00:15:00,0,20824706,184813
OK,46,38,1006,46,2014-08-02T00:20:00,0,20825155,184813
OK,37,47,1006,37,2014-08-02T00:25:00,0,20825604,184813
OK,37,47,1006,37,2014-08-02T00:30:00,0,20826053,184813
OK,37,47,1006,37,2014-08-02T00:35:00,0,20826502,184813
OK,37,47,1006,37,2014-08-02T00:40:00,0,20826951,184813
OK,37,47,1006,37,2014-08-02T00:45:00,0,20827400,184813
OK,37,47,1006,37,2014-08-02T00:50:00,0,20827849,184813
OK,41,43,1006,41,2014-08-02T00:55:00,1,20828298,184813
OK,41,43,1006,41,2014-08-02T01:00:00,1,20828747,184813
OK,43,41,1006,43,2014-08-02T01:05:00,0,20829196,184813
OK,43,41,1006,43,2014-08-02T01:10:00,0,20829645,184813
OK,43,41,1006,43,2014-08-02T01:15:00,0,20830094,184813
OK,43,41,1006,43,2014-08-02T01:20:00,0,20830543,184813
OK,43,41,1006,43,2014-08-02T01:25:00,0,20830992,184813
OK,43,41,1006,43,2014-08-02T01:30:00,0,20831441,184813
OK,78,22,1006,78,2014-08-02T01:35:00,1,20831890,184813
OK,78,22,1006,78,2014-08-02T01:40:00,0,20832339,184813
OK,78,22,1006,78,2014-08-02T01:45:00,0,20832788,184813
OK,78,22,1006,78,2014-08-02T01:50:00,0,20833237,184813
OK,78,22,1006,78,2014-08-02T01:55:00,0,20833686,184813
OK,78,22,1006,78,2014-08-02T02:00:00,0,20834135,184813
OK,78,22,1006,78,2014-08-02T02:05:00,0,20834584,184813
OK,78,22,1006,78,2014-08-02T02:10:00,0,20835033,184813
OK,78,22,1006,78,2014-08-02T02:15:00,0,20835482,184813
OK,78,22,1006,78,2014-08-02T02:20:00,0,20835931,184813
OK,78,22,1006,78,2014-08-02T02:25:00,0,20836380,184813
OK,78,22,1006,78,2014-08-02T02:30:00,0,20836829,184813
OK,78,22,1006,78,2014-08-02T02:35:00,0,20837278,184813
OK,78,22,1006,78,2014-08-02T02:40:00,0,20837727,184813
OK,78,22,1006,78,2014-08-02T02:45:00,0,20838176,184813
OK,78,22,1006,78,2014-08-02T02:50:00,0,20838625,184813
OK,78,22,1006,78,2014-08-02T02:55:00,0,20839074,184813
OK,78,22,1006,78,2014-08-02T03:00:00,0,20839523,184813
OK,78,22,1006,78,2014-08-02T03:05:00,0,20839972,184813
OK,78,22,1006,78,2014-08-02T03:10:00,0,20840421,184813
OK,78,22,1006,78,2014-08-02T03:15:00,0,20840870,184813
OK,78,22,1006,78,2014-08-02T03:20:00,0,20841319,184813
OK,78,22,1006,78,2014-08-02T03:25:00,0,20841768,184813
OK,78,22,1006,78,2014-08-02T03:30:00,0,20842217,184813
OK,78,22,1006,78,2014-08-02T03:35:00,0,20842666,184813
OK,78,22,1006,78,2014-08-02T03:40:00,0,20843115,184813
OK,78,22,1006,78,2014-08-02T03:45:00,0,20843564,184813
OK,78,22,1006,78,2014-08-02T03:50:00,0,20844013,184813
OK,16,110,1006,16,2014-08-02T03:55:00,1,20844462,184813
OK,16,110,1006,16,2014-08-02T06:00:00,0,20851916,184813
OK,16,110,1006,16,2014-08-02T06:05:00,0,20852365,184813
OK,72,24,1006,72,2014-08-02T06:10:00,1,20852814,184813
OK,62,28,1006,62,2014-08-02T06:15:00,2,20853263,184813
OK,53,33,1006,53,2014-08-02T06:20:00,1,20853712,184813
OK,59,29,1006,59,2014-08-02T06:25:00,1,20854161,184813
OK,63,28,1006,63,2014-08-02T06:30:00,2,20854610,184813
OK,67,26,1006,67,2014-08-02T06:35:00,1,20855059,184813
OK,67,26,1006,67,2014-08-02T06:40:00,0,20855508,184813
OK,67,26,1006,67,2014-08-02T06:45:00,0,20855957,184813
OK,67,26,1006,67,2014-08-02T06:50:00,0,20856406,184813
OK,54,32,1006,54,2014-08-02T06:55:00,2,20856855,184813
OK,54,32,1006,54,2014-08-02T07:00:00,2,20857304,184813
OK,65,27,1006,65,2014-08-02T07:05:00,1,20857753,184813
OK,55,32,1006,55,2014-08-02T07:10:00,4,20858202,184813
OK,50,35,1006,50,2014-08-02T07:15:00,5,20858651,184813
OK,39,45,1006,39,2014-08-02T07:20:00,0,20859100,184813
OK,62,28,1006,62,2014-08-02T07:25:00,2,20859549,184813
OK,51,34,1006,51,2014-08-02T07:30:00,4,20859998,184813
OK,48,36,1006,48,2014-08-02T07:35:00,6,20860447,184813
OK,48,36,1006,48,2014-08-02T07:40:00,4,20860896,184813
OK,62,28,1006,62,2014-08-02T07:45:00,2,20861345,184813
OK,59,29,1006,59,2014-08-02T07:50:00,1,20861794,184813
OK,65,27,1006,65,2014-08-02T07:55:00,2,20862243,184813
OK,62,28,1006,62,2014-08-02T08:00:00,3,20862692,184813
OK,59,29,1006,59,2014-08-02T08:05:00,2,20863141,184813
OK,67,26,1006,67,2014-08-02T08:10:00,4,20863590,184813
OK,53,33,1006,53,2014-08-02T08:15:00,7,20864039,184813
OK,45,39,1006,45,2014-08-02T08:20:00,3,20864488,184813
OK,85,20,1006,85,2014-08-02T08:25:00,2,20864937,184813
OK,64,27,1006,64,2014-08-02T08:30:00,4,20865386,184813
OK,56,31,1006,56,2014-08-02T08:35:00,3,20865835,184813
OK,73,24,1006,73,2014-08-02T08:40:00,2,20866284,184813
OK,43,41,1006,43,2014-08-02T08:45:00,3,20866733,184813
OK,43,41,1006,43,2014-08-02T08:50:00,3,20867182,184813
OK,64,27,1006,64,2014-08-02T08:55:00,3,20867631,184813
OK,69,25,1006,69,2014-08-02T09:00:00,4,20868080,184813
OK,63,28,1006,63,2014-08-02T09:05:00,4,20868529,184813
OK,67,26,1006,67,2014-08-02T09:10:00,6,20868978,184813
OK,68,25,1006,68,2014-08-02T09:15:00,4,20869427,184813
OK,50,35,1006,50,2014-08-02T09:20:00,1,20869876,184813
OK,48,36,1006,48,2014-08-02T09:25:00,2,20870325,184813
OK,51,34,1006,51,2014-08-02T09:30:00,1,20870774,184813
OK,50,35,1006,50,2014-08-02T09:35:00,3,20871223,184813
OK,41,43,1006,41,2014-08-02T09:40:00,2,20871672,184813
OK,53,33,1006,53,2014-08-02T09:45:00,4,20872121,184813
OK,70,25,1006,70,2014-08-02T09:50:00,5,20872570,184813
OK,67,26,1006,67,2014-08-02T09:55:00,4,20873019,184813
OK,56,31,1006,56,2014-08-02T10:00:00,2,20873468,184813
OK,89,19,1006,89,2014-08-02T10:05:00,2,20873917,184813
OK,100,17,1006,100,2014-08-02T10:10:00,3,20874366,184813
OK,76,23,1006,76,2014-08-02T10:15:00,4,20874815,184813
OK,57,31,1006,57,2014-08-02T10:20:00,3,20875264,184813
OK,49,36,1006,49,2014-08-02T10:25:00,2,20875713,184813
OK,51,34,1006,51,2014-08-02T10:30:00,3,20876162,184813
OK,62,28,1006,62,2014-08-02T10:35:00,4,20876611,184813
OK,86,20,1006,86,2014-08-02T10:40:00,3,20877060,184813
OK,84,21,1006,84,2014-08-02T10:45:00,5,20877509,184813
OK,60,29,1006,60,2014-08-02T10:50:00,5,20877958,184813
OK,75,23,1006,75,2014-08-02T10:55:00,4,20878407,184813
OK,73,24,1006,73,2014-08-02T11:00:00,5,20878856,184813
OK,69,25,1006,69,2014-08-02T11:05:00,0,20879305,184813
OK,71,24,1006,71,2014-08-02T11:10:00,2,20879754,184813
OK,68,25,1006,68,2014-08-02T11:15:00,8,20880203,184813
OK,68,25,1006,68,2014-08-02T11:20:00,6,20880652,184813
OK,61,28,1006,61,2014-08-02T11:25:00,4,20881101,184813
OK,47,37,1006,47,2014-08-02T11:30:00,5,20881550,184813
OK,60,29,1006,60,2014-08-02T11:35:00,5,20881999,184813
OK,73,24,1006,73,2014-08-02T11:40:00,3,20882448,184813
OK,105,16,1006,105,2014-08-02T11:45:00,0,20882897,184813
OK,57,31,1006,57,2014-08-02T11:50:00,2,20883346,184813
OK,68,25,1006,68,2014-08-02T11:55:00,5,20883795,184813
OK,71,24,1006,71,2014-08-02T12:00:00,4,20884244,184813
OK,76,23,1006,76,2014-08-02T12:05:00,5,20884693,184813
OK,74,23,1006,74,2014-08-02T12:10:00,7,20885142,184813
OK,75,23,1006,75,2014-08-02T12:15:00,4,20885591,184813
OK,63,28,1006,63,2014-08-02T12:20:00,6,20886040,184813
OK,63,28,1006,63,2014-08-02T12:25:00,7,20886489,184813
OK,59,29,1006,59,2014-08-02T12:30:00,2,20886938,184813
OK,87,20,1006,87,2014-08-02T12:35:00,5,20887387,184813
OK,74,23,1006,74,2014-08-02T12:40:00,4,20887836,184813
OK,61,28,1006,61,2014-08-02T12:45:00,3,20888285,184813
OK,59,29,1006,59,2014-08-02T12:50:00,5,20888734,184813
OK,49,36,1006,49,2014-08-02T12:55:00,3,20889183,184813
OK,48,36,1006,48,2014-08-02T13:00:00,2,20889632,184813
OK,51,34,1006,51,2014-08-02T13:05:00,2,20890081,184813
OK,51,34,1006,51,2014-08-02T13:10:00,2,20890530,184813
OK,71,24,1006,71,2014-08-02T13:15:00,0,20890979,184813
OK,78,22,1006,78,2014-08-02T13:20:00,1,20891428,184813
OK,66,26,1006,66,2014-08-02T13:25:00,2,20891877,184813
OK,43,41,1006,43,2014-08-02T13:30:00,3,20892326,184813
OK,51,34,1006,51,2014-08-02T13:35:00,2,20892775,184813
OK,59,29,1006,59,2014-08-02T13:40:00,1,20893224,184813
OK,59,29,1006,59,2014-08-02T13:45:00,0,20893673,184813
OK,49,36,1006,49,2014-08-02T13:50:00,1,20894122,184813
OK,46,38,1006,46,2014-08-02T13:55:00,2,20894571,184813
OK,44,40,1006,44,2014-08-02T14:00:00,1,20895020,184813
OK,56,31,1006,56,2014-08-02T14:05:00,2,20895469,184813
OK,56,31,1006,56,2014-08-02T14:10:00,2,20895918,184813
OK,64,27,1006,64,2014-08-02T14:15:00,0,20896367,184813
OK,64,27,1006,64,2014-08-02T14:20:00,0,20896816,184813
OK,63,28,1006,63,2014-08-02T14:25:00,3,20897265,184813
OK,63,28,1006,63,2014-08-02T14:30:00,3,20897714,184813
OK,35,50,1006,35,2014-08-02T14:35:00,0,20898163,184813
OK,112,15,1006,112,2014-08-02T14:40:00,2,20898612,184813
OK,73,24,1006,73,2014-08-02T14:45:00,4,20899061,184813
OK,28,63,1006,28,2014-08-02T14:50:00,1,20899510,184813
OK,68,25,1006,68,2014-08-02T14:55:00,2,20899959,184813
OK,57,31,1006,57,2014-08-02T15:00:00,2,20900408,184813
OK,37,47,1006,37,2014-08-02T15:05:00,1,20900857,184813
OK,45,39,1006,45,2014-08-02T15:10:00,2,20901306,184813
OK,47,37,1006,47,2014-08-02T15:15:00,1,20901755,184813
OK,35,50,1006,35,2014-08-02T15:20:00,1,20902204,184813
OK,35,50,1006,35,2014-08-02T15:25:00,0,20902653,184813
OK,66,26,1006,66,2014-08-02T15:30:00,2,20903102,184813
OK,66,26,1006,66,2014-08-02T15:35:00,3,20903551,184813
OK,63,28,1006,63,2014-08-02T15:40:00,2,20904000,184813
OK,63,28,1006,63,2014-08-02T15:45:00,2,20904449,184813
OK,51,34,1006,51,2014-08-02T15:50:00,3,20904898,184813
OK,51,34,1006,51,2014-08-02T15:55:00,3,20905347,184813
OK,34,51,1006,34,2014-08-02T16:00:00,0,20905796,184813
OK,34,51,1006,34,2014-08-02T16:05:00,0,20906245,184813
OK,34,51,1006,34,2014-08-02T16:10:00,0,20906694,184813
OK,34,51,1006,34,2014-08-02T16:15:00,0,20907143,184813
OK,41,43,1006,41,2014-08-02T16:20:00,1,20907592,184813
OK,39,45,1006,39,2014-08-02T16:25:00,2,20908041,184813
OK,38,46,1006,38,2014-08-02T16:30:00,0,20908490,184813
OK,36,49,1006,36,2014-08-02T16:35:00,1,20908939,184813
OK,36,49,1006,36,2014-08-02T16:40:00,1,20909388,184813
OK,34,51,1006,34,2014-08-02T16:45:00,1,20909837,184813
OK,34,51,1006,34,2014-08-02T16:50:00,0,20910286,184813
OK,34,51,1006,34,2014-08-02T16:55:00,0,20910735,184813
OK,34,51,1006,34,2014-08-02T17:00:00,0,20911184,184813
OK,34,51,1006,34,2014-08-02T17:05:00,0,20911633,184813
OK,59,29,1006,59,2014-08-02T17:10:00,2,20912082,184813
OK,59,29,1006,59,2014-08-02T17:15:00,2,20912531,184813
OK,33,53,1006,33,2014-08-02T17:20:00,0,20912980,184813
OK,33,53,1006,33,2014-08-02T17:25:00,0,20913429,184813
OK,33,53,1006,33,2014-08-02T17:30:00,0,20913878,184813
OK,66,26,1006,66,2014-08-02T17:35:00,3,20914327,184813
OK,66,26,1006,66,2014-08-02T17:40:00,3,20914776,184813
OK,66,26,1006,66,2014-08-02T17:45:00,0,20915225,184813
OK,47,37,1006,47,2014-08-02T17:50:00,1,20915674,184813
OK,32,55,1006,32,2014-08-02T17:55:00,1,20916123,184813
OK,41,43,1006,41,2014-08-02T18:00:00,2,20916572,184813
OK,58,30,1006,58,2014-08-02T18:05:00,3,20917021,184813
OK,61,28,1006,61,2014-08-02T18:10:00,1,20917470,184813
OK,61,28,1006,61,2014-08-02T18:15:00,0,20917919,184813
OK,61,28,1006,61,2014-08-02T18:20:00,0,20918368,184813
OK,61,28,1006,61,2014-08-02T18:25:00,0,20918817,184813
OK,61,28,1006,61,2014-08-02T18:30:00,0,20919266,184813
OK,61,28,1006,61,2014-08-02T18:35:00,0,20919715,184813
OK,76,23,1006,76,2014-08-02T18:40:00,1,20920164,184813
OK,76,23,1006,76,2014-08-02T18:45:00,0,20920613,184813
OK,76,23,1006,76,2014-08-02T18:50:00,0,20921062,184813
OK,76,23,1006,76,2014-08-02T18:55:00,0,20921511,184813
OK,76,23,1006,76,2014-08-02T19:00:00,0,20921960,184813
OK,76,23,1006,76,2014-08-02T19:05:00,0,20922409,184813
OK,76,23,1006,76,2014-08-02T19:10:00,0,20922858,184813
OK,76,23,1006,76,2014-08-02T19:15:00,0,20923307,184813
OK,76,23,1006,76,2014-08-02T19:20:00,0,20923756,184813
OK,76,23,1006,76,2014-08-02T19:25:00,0,20924205,184813
OK,76,23,1006,76,2014-08-02T19:30:00,0,20924654,184813
OK,76,23,1006,76,2014-08-02T19:35:00,0,20925103,184813
OK,72,24,1006,72,2014-08-02T19:40:00,1,20925552,184813
OK,72,24,1006,72,2014-08-02T19:45:00,0,20926001,184813
OK,72,24,1006,72,2014-08-02T19:50:00,0,20926450,184813
OK,72,24,1006,72,2014-08-02T19:55:00,0,20926899,184813
OK,44,40,1006,44,2014-08-02T20:00:00,1,20927348,184813
OK,51,34,1006,51,2014-08-02T20:05:00,2,20927797,184813
OK,53,33,1006,53,2014-08-02T20:10:00,2,20928246,184813
OK,48,36,1006,48,2014-08-02T20:15:00,1,20928695,184813
OK,48,36,1006,48,2014-08-02T20:20:00,0,20929144,184813
OK,46,38,1006,46,2014-08-02T20:25:00,1,20929593,184813
OK,46,38,1006,46,2014-08-02T20:30:00,0,20930042,184813
OK,46,38,1006,46,2014-08-02T20:35:00,0,20930491,184813
OK,46,38,1006,46,2014-08-02T20:40:00,0,20930940,184813
OK,46,38,1006,46,2014-08-02T20:45:00,0,20931389,184813
OK,46,38,1006,46,2014-08-02T20:50:00,0,20931838,184813
OK,63,28,1006,63,2014-08-02T20:55:00,1,20932287,184813
OK,63,28,1006,63,2014-08-02T21:00:00,1,20932736,184813
OK,33,53,1006,33,2014-08-02T21:05:00,1,20933185,184813
OK,33,53,1006,33,2014-08-02T21:10:00,1,20933634,184813
OK,33,53,1006,33,2014-08-02T21:15:00,0,20934083,184813
OK,33,53,1006,33,2014-08-02T21:20:00,0,20934532,184813
OK,33,53,1006,33,2014-08-02T21:25:00,0,20934981,184813
OK,33,53,1006,33,2014-08-02T21:30:00,0,20935430,184813
OK,33,53,1006,33,2014-08-02T21:35:00,0,20935879,184813
OK,33,53,1006,33,2014-08-02T21:40:00,0,20936328,184813
OK,56,31,1006,56,2014-08-02T21:45:00,1,20936777,184813
OK,56,31,1006,56,2014-08-02T21:50:00,1,20937226,184813
OK,56,31,1006,56,2014-08-02T21:55:00,0,20937675,184813
OK,56,31,1006,56,2014-08-02T22:00:00,0,20938124,184813
OK,56,31,1006,56,2014-08-02T22:05:00,0,20938573,184813
OK,56,31,1006,56,2014-08-02T22:10:00,0,20939022,184813
OK,56,31,1006,56,2014-08-02T22:15:00,0,20939471,184813
OK,56,31,1006,56,2014-08-02T22:20:00,0,20939920,184813
OK,73,24,1006,73,2014-08-02T22:25:00,0,20940369,184813
OK,73,24,1006,73,2014-08-02T22:30:00,0,20940818,184813
OK,73,24,1006,73,2014-08-02T22:35:00,0,20941267,184813
OK,73,24,1006,73,2014-08-02T22:40:00,0,20941716,184813
OK,73,24,1006,73,2014-08-02T22:45:00,0,20942165,184813
OK,73,24,1006,73,2014-08-02T22:50:00,0,20942614,184813
OK,29,60,1006,29,2014-08-02T22:55:00,1,20943063,184813
OK,28,63,1006,28,2014-08-02T23:00:00,2,20943512,184813
OK,28,63,1006,28,2014-08-02T23:10:00,0,20943961,184813
OK,38,46,1006,38,2014-08-02T23:15:00,1,20944410,184813
OK,33,53,1006,33,2014-08-02T23:20:00,1,20944859,184813
OK,33,53,1006,33,2014-08-02T23:25:00,0,20945308,184813
OK,33,53,1006,33,2014-08-02T23:30:00,0,20945757,184813
OK,33,53,1006,33,2014-08-02T23:35:00,0,20946206,184813
OK,33,53,1006,33,2014-08-02T23:40:00,0,20946655,184813
OK,33,53,1006,33,2014-08-02T23:45:00,0,20947104,184813
OK,34,51,1006,34,2014-08-02T23:50:00,1,20947553,184813
OK,34,51,1006,34,2014-08-02T23:55:00,1,20948002,184813
OK,34,51,1006,34,2014-08-03T00:00:00,0,20948451,184813
OK,34,51,1006,34,2014-08-03T00:05:00,0,20948900,184813
OK,34,51,1006,34,2014-08-03T00:10:00,0,20949348,184813
OK,34,51,1006,34,2014-08-03T00:15:00,0,20949797,184813
OK,34,51,1006,34,2014-08-03T00:20:00,0,20950246,184813
OK,34,51,1006,34,2014-08-03T00:25:00,0,20950695,184813
OK,34,51,1006,34,2014-08-03T00:30:00,0,20951144,184813
OK,34,51,1006,34,2014-08-03T00:35:00,0,20951593,184813
OK,34,51,1006,34,2014-08-03T00:40:00,0,20952042,184813
OK,34,51,1006,34,2014-08-03T00:45:00,0,20952491,184813
OK,34,51,1006,34,2014-08-03T00:50:00,0,20952940,184813
OK,34,51,1006,34,2014-08-03T00:55:00,0,20953389,184813
OK,34,51,1006,34,2014-08-03T01:00:00,0,20953838,184813
OK,34,51,1006,34,2014-08-03T01:05:00,0,20954287,184813
OK,34,51,1006,34,2014-08-03T01:10:00,0,20954736,184813
OK,34,51,1006,34,2014-08-03T01:15:00,0,20955185,184813
OK,34,51,1006,34,2014-08-03T01:20:00,0,20955634,184813
OK,34,51,1006,34,2014-08-03T01:25:00,0,20956083,184813
OK,34,51,1006,34,2014-08-03T01:30:00,0,20956532,184813
OK,34,51,1006,34,2014-08-03T01:35:00,0,20956981,184813
OK,34,51,1006,34,2014-08-03T01:40:00,0,20957430,184813
OK,34,51,1006,34,2014-08-03T01:45:00,0,20957879,184813
OK,34,51,1006,34,2014-08-03T01:50:00,0,20958328,184813
OK,34,51,1006,34,2014-08-03T01:55:00,0,20958777,184813
OK,34,51,1006,34,2014-08-03T02:00:00,0,20959226,184813
OK,34,51,1006,34,2014-08-03T02:05:00,0,20959675,184813
OK,34,51,1006,34,2014-08-03T02:10:00,0,20960124,184813
OK,34,51,1006,34,2014-08-03T02:15:00,0,20960573,184813